Regional Weather Roundup
Issued by NWS Boston, MA

Current Version | Previous Version | Text Only | Print | Product List | Glossary Off
Versions: 1 2 3 4 5 6 7 8 9 10 11 12 13 14 15 16 17 18 19 20 21 22 23 24 25 26 27
000 ASUS41 KBOX 241710 RWRBOX REGIONAL WEATHER ROUNDUP NATIONAL WEATHER SERVICE BOSTON/NORTON MA 100 PM EDT TUE APR 24 2018 NOTE: "FAIR" INDICATES FEW OR NO CLOUDS BELOW 12,000 FEET WITH NO SIGNIFICANT WEATHER AND/OR OBSTRUCTIONS TO VISIBILITY. MAZALL-241800- EASTERN MASSACHUSETTS CITY SKY/WX TMP DP RH WIND PRES REMARKS BOSTON PTSUNNY 66 28 24 S13 30.33F BEVERLY FAIR 68 27 21 SW15G21 30.31F LAWRENCE FAIR 70 27 20 S12G21 30.32F BEDFORD PTSUNNY 67 26 21 S13 30.31F BLUE HILL N/A 65 27 23 S14G23 30.32F NORWOOD FAIR 68 29 23 S10G17 30.33F MARSHFIELD FAIR 66 30 26 S8G22 30.34F HAZE PLYMOUTH FAIR 64 37 36 S16 30.36F TAUNTON FAIR 65 33 30 SW12G20 30.36F NEW BEDFORD FAIR 60 40 47 SW14G22 30.38F $$ MAZALL-241800- CAPE COD AND THE ISLANDS CITY SKY/WX TMP DP RH WIND PRES REMARKS FALMOUTH FAIR 61 34 36 SW14 30.39 HYANNIS FAIR 57 42 57 S13G20 30.38F CHATHAM FAIR 57 40 52 SW13G20 30.42F PROVINCETOWN FAIR 60 39 45 S16G22 30.38F NANTUCKET FAIR 52 45 77 S12 30.42F MARTHAS VNYRD FAIR 59 40 49 S15 30.41F $$ MAZALL-241800- CENTRAL AND WESTERN MASSACHUSETTS CITY SKY/WX TMP DP RH WIND PRES REMARKS WORCESTER FAIR 62 25 24 SW12G20 30.33F FITCHBURG FAIR 70 23 17 S9G21 30.31F ORANGE FAIR 64 25 22 S16G23 30.32F SPRINGFIELD MOSUNNY 66 25 21 S15G22 30.31F WESTFIELD FAIR 67 23 19 S16 30.31F NORTH ADAMS FAIR 66 24 20 VRB6 30.28F PITTSFIELD FAIR 63 20 19 VRB6G22 30.28F $$ RIZALL-241800- RHODE ISLAND CITY SKY/WX TMP DP RH WIND PRES REMARKS PROVIDENCE PTSUNNY 62 44 51 SE17 30.37F NEWPORT FAIR 57 46 66 S13 30.40F BLOCK ISLAND FAIR 55 45 68 S14 30.40F SMITHFIELD FAIR 65 31 28 MISG 30.35F WESTERLY FAIR 58 45 62 S12 30.40F $$ CTZALL-241800- CONNECTICUT CITY SKY/WX TMP DP RH WIND PRES REMARKS BRADLEY INTL PTSUNNY 66 27 23 SE12 30.33F HARTFORD FAIR 64 31 28 S9G17 30.34F BRIDGEPORT FAIR 55 43 63 E8 30.37F DANBURY FAIR 61 31 32 VRB7G20 30.35F GROTON FAIR 57 45 64 S10 30.38F NEW HAVEN FAIR 61 40 45 SE9 30.37F CHESTER FAIR 63 30 29 SW9G16 30.37F MERIDEN FAIR 62 31 31 SW12G20 30.35F WILLIMANTIC FAIR 65 29 25 SW9G21 30.35F OXFORD FAIR 60 32 34 S16G22 30.35F $$ MEZ002-015-021-024-NHZ003-005-008-011-012-014-VTZ005-008-241800- NORTHERN NEW ENGLAND CITY SKY/WX TMP DP RH WIND PRES REMARKS PORTLAND ME PTSUNNY 60 35 39 S16G26 30.29F BANGOR ME PTSUNNY 68 32 26 S14 30.24F CONCORD NH FAIR 70 23 17 S14 30.27F MANCHESTER NH FAIR 70 18 13 SW15 30.27F NASHUA NH FAIR 68 24 19 VRB7 30.30F PORTSMOUTH NH PTSUNNY 69 24 18 S9 30.28F JAFFREY NH FAIR 65 24 21 S10 30.31F KEENE NH FAIR 68 25 19 SW15 30.29F BURLINGTON VT FAIR 69 26 20 SW14 30.20F MT. WASHINGTON MOSUNNY 41 21 45 W10 N/A $$ NYZ052-076-241800- EASTERN NEW YORK CITY SKY/WX TMP DP RH WIND PRES REMARKS ALBANY PTSUNNY 68 22 17 S16G23 30.28F NEW YORK CITY PTSUNNY 65 34 31 S17 30.35F $$ ANZALL-241800- MARINE OBSERVATIONS STATION/POSITION TIME TEMP WIND PRES VSBY WAVE AIR SEA DIR/SP/G HT/PER (UTC) (F) (DEG/KT/KT) (MB) (MI) (FT/S) BOSTON BUOY 1650 48 46 130/ 12/ 14 1026.7F 1/ 3 BUZZARDS BAY 1600 47 180/ 10/ 11 1030.7 NANTUCKET SOUND 1550 46 45 190/ 8/ 10 1030.6 0 MASS BAY-STELLWA 1604 46 44 1027.1F 1/ 3 ISLE OF SHOALS 1600 50 170/ 17/ 18 1027.1 S OF BLOCK IS 1643 45 N/A 1/ 9 $$ ......................KEY......................... SKY/WX - SKY CONDITION/PRESENT WEATHER TMP - TEMPERATURE IN FAHRENHEIT DWPT - DEWPOINT IN FAHRENHEIT RH - RELATIVE HUMIDITY IN PERCENT WIND - DIRECTION AND SPEED IN MPH PRES - MEAN SEA LEVEL PRESSURE IN INCHES OF HG WCI - WIND CHILL INDEX VSB - VISIBILITY IN MILES HX - HEAT INDEX TC - TEMPERATURE IN CELSIUS VRB - VARIABLE WIND DIRECTION N/A - NOT AVAILABLE

USA.gov is the U.S. government's official web portal to all federal, state and local government web resources and services.